Вернуться в каталог

OPS 4682 DEB

АктивенPO
NORAD 52783·DEBRIS·🇺🇸 United States

Запущен Apr 3, 1965 с Vandenberg Space Force Base

Loading…

Ближайшие Пролёты (ближайшие 24 часа)

TLE

УстаревшееSource: Space-Track

Эпоха: Aug 29, 2026, 14:53 UTC

1 52783U 65027GZ  26241.62053507 -.00000142  00000-0 -52625-3 0  9990
2 52783  90.2407  10.0542 0029909 356.7632   3.3289 12.95674520544191

Отслеживайте OPS 4682 DEB в реальном времени с AllMySat

Download on the App Store